Weather History for Brunswick, GA

Change the Weather History Date:

Monday, January 21, 2013

  Actual Average Record
Temperature  
Mean Temperature 55 °F -  
Max Temperature 69 °F 60 °F 81 °F (1937)
Min Temperature 41 °F 39 °F 5 °F (1985)
Degree Days  
Heating Degree Days 10    
Growing Degree Days 5 (Base 50)    
Moisture  
Dew Point 44 °F    
Average Humidity 69    
Maximum Humidity 100    
Minimum Humidity 33    
Precipitation  
Precipitation 0.00 in - - ()
Sea Level Pressure  
Sea Level Pressure 30.10 in    
Wind  
Wind Speed 2 mph (WNW)    
Max Wind Speed 9 mph    
Max Gust Speed -    
Visibility 7 miles    
Events      
Averages and records for this station are not official NWS values.
T = Trace of Precipitation, MM = Missing Value Source: NWS Daily Summary

Daily Weather History Graph

Daily Weather History Graph

Search for Another Location

Airport:

Trip Planner

Search our weather history database for the weather conditions in past years. The results will help you decide how hot, cold, wet, or windy it might be!

Date:

Astronomy

Jan. 21, 2013 Rise Set
Actual Time 7:23 AM EST 5:51 PM EST
Civil Twilight 6:57 AM EST 6:17 PM EST
Nautical Twilight 6:28 AM EST 6:46 PM EST
Astronomical Twilight 5:59 AM EST 7:15 PM EST
Moon 1:31 PM EST (1/21) 2:49 AM EST (1/21)
Length of Visible Light 11h 19m
Length of Day
10h 27m
Waxing Gibbous, 75% of the Moon is Illuminated
Jan 21
Waxing Gibbous
Jan 26
Full
Feb 3
Last Quarter
Feb 10
New
Feb 17
First Quarter

Hourly Weather History & Observations

Time (EST) Temp. Dew Point Humidity Pressure Visibility Wind Dir Wind Speed Gust Speed Precip Events Conditions
12:15 AM 48.2 °F 48.2 °F 100% 30.13 in 1.2 mi Calm Calm - N/A   Unknown
12:35 AM 46.4 °F 44.6 °F 93% 30.13 in 0.2 mi Calm Calm - N/A   Unknown
12:55 AM 46.4 °F 46.4 °F 100% 30.13 in 1.0 mi Calm Calm - N/A   Unknown
1:15 AM 46.4 °F 46.4 °F 100% 30.12 in 0.2 mi Calm Calm - N/A   Unknown
1:35 AM 46.4 °F 46.4 °F 100% 30.12 in 0.5 mi Calm Calm - N/A   Unknown
1:55 AM 46.4 °F 46.4 °F 100% 30.11 in 0.5 mi Calm Calm - N/A   Unknown
2:15 AM 44.6 °F 44.6 °F 100% 30.11 in 0.8 mi Calm Calm - N/A   Unknown
2:35 AM 46.4 °F 46.4 °F 100% 30.11 in 2.0 mi Calm Calm - N/A   Clear
2:55 AM 44.6 °F 44.6 °F 100% 30.11 in 0.2 mi Calm Calm - N/A   Overcast
3:15 AM 44.6 °F 44.6 °F 100% 30.11 in 3.0 mi Calm Calm - N/A   Scattered Clouds
3:35 AM 44.6 °F 44.6 °F 100% 30.10 in 0.2 mi Calm Calm - N/A   Mostly Cloudy
3:55 AM 44.6 °F 44.6 °F 100% 30.09 in 2.0 mi Calm Calm - N/A   Clear
4:15 AM 42.8 °F 42.8 °F 100% 30.09 in 0.2 mi Calm Calm - N/A   Unknown
4:35 AM 44.6 °F 44.6 °F 100% 30.09 in 5.0 mi Calm Calm - N/A   Clear
4:55 AM 44.6 °F 44.6 °F 100% 30.08 in 1.0 mi Calm Calm - N/A   Unknown
5:15 AM 44.6 °F 44.6 °F 100% 30.08 in 2.0 mi Calm Calm - N/A   Clear
5:35 AM 44.6 °F 42.8 °F 93% 30.09 in 4.0 mi Calm Calm - N/A   Clear
5:55 AM 42.8 °F 42.8 °F 100% 30.09 in 1.8 mi Calm Calm - N/A   Unknown
6:15 AM 44.6 °F 44.6 °F 100% 30.09 in 1.2 mi Calm Calm - N/A   Unknown
6:35 AM 41.0 °F 41.0 °F 100% 30.10 in 0.5 mi Calm Calm - N/A   Unknown
6:55 AM 42.8 °F 42.8 °F 100% 30.10 in 7.0 mi Calm Calm - N/A   Clear
7:15 AM 42.8 °F 42.8 °F 100% 30.10 in 7.0 mi Calm Calm - N/A   Clear
7:35 AM 42.8 °F 42.8 °F 100% 30.11 in 5.0 mi Calm Calm - N/A   Scattered Clouds
7:55 AM 44.6 °F 44.6 °F 100% 30.12 in 10.0 mi Calm Calm - N/A   Mostly Cloudy
8:15 AM 44.6 °F 44.6 °F 100% 30.13 in 10.0 mi Calm Calm - N/A   Scattered Clouds
8:35 AM 48.2 °F 46.4 °F 93% 30.13 in 10.0 mi Calm Calm - N/A   Clear
8:55 AM 50.0 °F 50.0 °F 100% 30.13 in 10.0 mi Calm Calm - N/A   Clear
9:35 AM 55.4 °F 46.4 °F 72% 30.15 in 10.0 mi West 3.5 mph - N/A   Clear
9:55 AM 57.2 °F 46.4 °F 67% 30.15 in 10.0 mi WNW 4.6 mph - N/A   Clear
10:15 AM 59.0 °F 46.4 °F 63% 30.15 in 10.0 mi NW 3.5 mph - N/A   Clear
10:35 AM 60.8 °F 46.4 °F 59% 30.15 in 10.0 mi Calm Calm - N/A   Clear
10:55 AM 62.6 °F 44.6 °F 52% 30.15 in 10.0 mi WSW 4.6 mph - N/A   Clear
11:15 AM 64.4 °F 42.8 °F 45% 30.15 in 10.0 mi West 4.6 mph - N/A   Clear
11:35 AM 68.0 °F 42.8 °F 40% 30.14 in 10.0 mi WNW 5.8 mph - N/A   Clear
11:55 AM 68.0 °F 41.0 °F 37% 30.13 in 10.0 mi NW 5.8 mph - N/A   Clear
12:15 PM 69.8 °F 39.2 °F 33% 30.12 in 10.0 mi NW 3.5 mph - N/A   Clear
12:35 PM 69.8 °F 39.2 °F 33% 30.10 in 10.0 mi West 5.8 mph - N/A   Clear
12:55 PM 69.8 °F 39.2 °F 33% 30.09 in 10.0 mi West 4.6 mph - N/A   Clear
1:15 PM 69.8 °F 39.2 °F 33% 30.07 in 10.0 mi West 9.2 mph - N/A   Clear
1:35 PM 69.8 °F 39.2 °F 33% 30.06 in 10.0 mi West 8.1 mph - N/A   Clear
1:55 PM 69.8 °F 39.2 °F 33% 30.06 in 10.0 mi WNW 9.2 mph - N/A   Clear
2:15 PM 69.8 °F 39.2 °F 33% 30.05 in 10.0 mi WNW 5.8 mph - N/A   Clear
2:35 PM 69.8 °F 41.0 °F 35% 30.05 in 10.0 mi WNW 6.9 mph - N/A   Clear
2:55 PM 69.8 °F 41.0 °F 35% 30.05 in 10.0 mi West 5.8 mph - N/A   Clear
3:15 PM 69.8 °F 41.0 °F 35% 30.05 in 10.0 mi West 9.2 mph - N/A   Clear
3:35 PM 69.8 °F 41.0 °F 35% 30.05 in 10.0 mi West 6.9 mph - N/A   Clear
3:55 PM 69.8 °F 39.2 °F 33% 30.04 in 10.0 mi West 8.1 mph - N/A   Clear
4:15 PM 69.8 °F 41.0 °F 35% 30.04 in 10.0 mi West 8.1 mph - N/A   Clear
4:35 PM 68.0 °F 41.0 °F 37% 30.04 in 10.0 mi West 4.6 mph - N/A   Clear
4:55 PM 68.0 °F 41.0 °F 37% 30.04 in 10.0 mi West 3.5 mph - N/A   Clear
5:15 PM 66.2 °F 42.8 °F 43% 30.05 in 10.0 mi West 3.5 mph - N/A   Clear
5:35 PM 64.4 °F 42.8 °F 45% 30.06 in 10.0 mi WNW 3.5 mph - N/A   Clear
5:55 PM 62.6 °F 42.8 °F 48% 30.06 in 10.0 mi Calm Calm - N/A   Clear
6:15 PM 60.8 °F 46.4 °F 59% 30.07 in 10.0 mi Calm Calm - N/A   Clear
6:35 PM 59.0 °F 46.4 °F 63% 30.07 in 10.0 mi Calm Calm - N/A   Clear
6:55 PM 57.2 °F 46.4 °F 67% 30.07 in 10.0 mi Calm Calm - N/A   Clear
7:15 PM 59.0 °F 44.6 °F 59% 30.08 in 10.0 mi West 3.5 mph - N/A   Clear
7:35 PM 59.0 °F 44.6 °F 59% 30.08 in 10.0 mi West 3.5 mph - N/A   Clear
7:55 PM 57.2 °F 44.6 °F 63% 30.08 in 10.0 mi Calm Calm - N/A   Clear
8:15 PM 55.4 °F 44.6 °F 67% 30.09 in 10.0 mi Calm Calm - N/A   Clear
8:35 PM 55.4 °F 44.6 °F 67% 30.09 in 10.0 mi Calm Calm - N/A   Clear
8:55 PM 55.4 °F 44.6 °F 67% 30.09 in 10.0 mi Calm Calm - N/A   Clear
9:15 PM 55.4 °F 44.6 °F 67% 30.10 in 10.0 mi West 3.5 mph - N/A   Clear
9:35 PM 55.4 °F 44.6 °F 67% 30.11 in 10.0 mi West 3.5 mph - N/A   Clear
9:55 PM 57.2 °F 44.6 °F 63% 30.11 in 10.0 mi West 4.6 mph - N/A   Clear
10:15 PM 57.2 °F 44.6 °F 63% 30.11 in 10.0 mi WNW 3.5 mph - N/A   Clear
10:35 PM 55.4 °F 44.6 °F 67% 30.12 in 10.0 mi WNW 3.5 mph - N/A   Clear
10:55 PM 55.4 °F 44.6 °F 67% 30.12 in 10.0 mi West 3.5 mph - N/A   Clear
11:15 PM 55.4 °F 44.6 °F 67% 30.12 in 10.0 mi West 3.5 mph - N/A   Clear
11:35 PM 55.4 °F 42.8 °F 63% 30.12 in 10.0 mi Calm Calm - N/A   Clear
11:55 PM 55.4 °F 42.8 °F 63% 30.12 in 10.0 mi Calm Calm - N/A   Clear